Port Clinton Carl R Keller Fi, OH

4:15 PM EDT on April 22, 2018 (GMT -0400)
Keller

Weather History for KPCW - March, 2014

Change the Weather History Date:

Monday, March 24, 2014

  Actual Average (KTTF) Record (KTTF)
Temperature  
Mean Temperature 27 °F -  
Max Temperature 33 °F 47 °F 74 °F (1988)
Min Temperature 21 °F 28 °F 6 °F (1940)
Degree Days  
Heating Degree Days 38    
Moisture  
Dew Point 16 °F    
Average Humidity 66    
Maximum Humidity 80    
Minimum Humidity 47    
Precipitation  
Precipitation 0.00 in - - ()
Sea Level Pressure  
Sea Level Pressure 30.24 in    
Wind  
Wind Speed 5 mph (West)    
Max Wind Speed 13 mph    
Max Gust Speed -    
Visibility 10 miles    
Events      
Averages and records for this station are not official NWS values.
T = Trace of Precipitation, MM = Missing Value Source: NWS Daily Summary

Daily Weather History Graph

Daily Weather History Graph

Search for Another Location

Airport or City:

Astronomy

Mar. 24, 2014 Rise Set
Actual Time 7:28 AM EDT 7:48 PM EDT
Civil Twilight 7:00 AM EDT 8:15 PM EDT
Nautical Twilight 6:27 AM EDT 8:48 PM EDT
Astronomical Twilight 5:54 AM EDT 9:21 PM EDT
Moon 3:01 AM EDT (3/24) 1:08 PM EDT (3/24)
Length of Visible Light 13h 15m
Length of Day
12h 20m
Last Quarter, 43% of the Moon is Illuminated
Mar 24
Last Quarter
Mar 30
New
Apr 7
First Quarter
Apr 15
Full
Apr 22
Last Quarter

Hourly Weather History & Observations

Time (EDT) Temp. Windchill Dew Point Humidity Pressure Visibility Wind Dir Wind Speed Gust Speed Precip Events Conditions
12:13 AM 21.2 °F - 15.8 °F 80% 30.32 in 10.0 mi Calm Calm - N/A   Overcast
12:34 AM 21.2 °F 16.4 °F 14.0 °F 74% 30.33 in 10.0 mi ESE 3.5 mph - N/A   Mostly Cloudy
12:54 AM 21.2 °F - 14.0 °F 74% 30.33 in 10.0 mi Calm Calm - N/A   Mostly Cloudy
1:13 AM 21.2 °F - 14.0 °F 74% 30.32 in 10.0 mi Calm Calm - N/A   Mostly Cloudy
1:34 AM 21.2 °F - 14.0 °F 74% 30.31 in 10.0 mi Calm Calm - N/A   Mostly Cloudy
1:54 AM 21.2 °F - 14.0 °F 74% 30.33 in 10.0 mi Calm Calm - N/A   Mostly Cloudy
2:13 AM 21.2 °F 13.6 °F 15.8 °F 80% 30.33 in 10.0 mi SSW 5.8 mph - N/A   Overcast
2:34 AM 21.2 °F 16.4 °F 15.8 °F 80% 30.31 in 10.0 mi South 3.5 mph - N/A   Overcast
2:54 AM 21.2 °F 16.4 °F 15.8 °F 80% 30.31 in 10.0 mi SSW 3.5 mph - N/A   Overcast
3:13 AM 21.2 °F 16.4 °F 15.8 °F 80% 30.32 in 10.0 mi South 3.5 mph - N/A   Overcast
3:34 AM 21.2 °F 16.4 °F 15.8 °F 80% 30.32 in 10.0 mi SSW 3.5 mph - N/A   Overcast
3:54 AM 22.1 °F 15.9 °F 16.2 °F 78% 30.30 in 10.0 mi SSW 4.6 mph - N/A   Overcast
4:13 AM 21.2 °F 16.4 °F 15.8 °F 80% 30.30 in 10.0 mi SSW 3.5 mph - N/A   Overcast
4:34 AM 23.0 °F 18.4 °F 15.8 °F 74% 30.31 in 10.0 mi SSW 3.5 mph - N/A   Overcast
4:54 AM 23.0 °F 17.0 °F 15.8 °F 74% 30.31 in 10.0 mi South 4.6 mph - N/A   Overcast
5:13 AM 24.8 °F 20.5 °F 17.6 °F 74% 30.30 in 10.0 mi WSW 3.5 mph - N/A   Overcast
5:34 AM 24.8 °F 19.1 °F 15.8 °F 69% 30.30 in 10.0 mi WNW 4.6 mph - N/A   Overcast
5:53 AM 24.8 °F 19.1 °F 14.0 °F 64% 30.31 in 10.0 mi Variable 4.6 mph - N/A   Overcast
6:13 AM 24.8 °F 16.9 °F 14.0 °F 64% 30.31 in 10.0 mi West 6.9 mph - N/A   Scattered Clouds
6:34 AM 24.8 °F 15.3 °F 17.6 °F 74% 30.31 in 10.0 mi WNW 9.2 mph - N/A   Mostly Cloudy
6:53 AM 23.0 °F 14.7 °F 17.6 °F 80% 30.31 in 10.0 mi West 6.9 mph - N/A   Overcast
7:14 AM 24.8 °F 19.1 °F 17.6 °F 74% 30.31 in 10.0 mi West 4.6 mph - N/A   Overcast
7:34 AM 24.8 °F 17.9 °F 15.8 °F 69% 30.32 in 10.0 mi Variable 5.8 mph - N/A   Overcast
7:53 AM 23.0 °F 15.8 °F 15.8 °F 74% 30.32 in 10.0 mi Variable 5.8 mph - N/A   Overcast
8:14 AM 23.0 °F 13.9 °F 15.8 °F 74% 30.31 in 10.0 mi WNW 8.1 mph - N/A   Overcast
8:34 AM 24.8 °F 16.1 °F 15.8 °F 69% 30.31 in 10.0 mi WNW 8.1 mph - N/A   Overcast
8:53 AM 24.1 °F 16.0 °F 16.2 °F 72% 30.32 in 10.0 mi Variable 6.9 mph - N/A   Overcast
9:14 AM 24.8 °F 15.3 °F 15.8 °F 69% 30.33 in 10.0 mi WNW 9.2 mph - N/A   Overcast
9:33 AM 24.8 °F 14.0 °F 15.8 °F 69% 30.32 in 10.0 mi WNW 11.5 mph - N/A   Overcast
9:53 AM 24.8 °F 15.3 °F 17.6 °F 74% 30.32 in 10.0 mi WNW 9.2 mph - N/A   Overcast
10:14 AM 24.8 °F 14.6 °F 15.8 °F 69% 30.32 in 10.0 mi WNW 10.4 mph - N/A   Overcast
10:33 AM 24.8 °F 16.9 °F 17.6 °F 74% 30.32 in 10.0 mi Variable 6.9 mph - N/A   Overcast
10:54 AM 24.8 °F 16.9 °F 15.8 °F 69% 30.30 in 10.0 mi NNW 6.9 mph - N/A   Partly Cloudy
11:13 AM 24.8 °F 16.9 °F 15.8 °F 69% 30.30 in 10.0 mi Variable 6.9 mph - N/A   Clear
11:33 AM 24.8 °F 16.9 °F 15.8 °F 69% 30.30 in 10.0 mi Variable 6.9 mph - N/A   Clear
11:54 AM 26.1 °F 19.4 °F 15.1 °F 63% 30.29 in 10.0 mi North 5.8 mph - N/A   Clear
12:13 PM 26.6 °F 22.6 °F 15.8 °F 64% 30.28 in 10.0 mi Variable 3.5 mph - N/A   Clear
12:33 PM 28.4 °F 21.2 °F 15.8 °F 59% 30.28 in 7.0 mi Variable 6.9 mph - N/A   Clear
12:54 PM 27.1 °F 20.7 °F 16.2 °F 63% 30.27 in 10.0 mi Variable 5.8 mph - N/A   Clear
1:13 PM 28.4 °F 22.2 °F 15.8 °F 59% 30.27 in 10.0 mi North 5.8 mph - N/A   Clear
1:33 PM 26.6 °F 20.0 °F 15.8 °F 64% 30.26 in 10.0 mi Variable 5.8 mph - N/A   Clear
1:53 PM 28.4 °F 20.4 °F 15.8 °F 59% 30.25 in 10.0 mi North 8.1 mph - N/A   Clear
2:13 PM 28.4 °F 22.2 °F 12.2 °F 51% 30.24 in 10.0 mi North 5.8 mph - N/A   Clear
2:34 PM 28.4 °F 23.3 °F 12.2 °F 51% 30.23 in 10.0 mi Variable 4.6 mph - N/A   Partly Cloudy
2:53 PM 28.0 °F 20.8 °F 12.0 °F 51% 30.21 in 10.0 mi North 6.9 mph - N/A   Mostly Cloudy
3:13 PM 30.2 °F 26.7 °F 12.2 °F 47% 30.20 in 10.0 mi Variable 3.5 mph - N/A   Scattered Clouds
3:34 PM 32.0 °F 27.5 °F 15.8 °F 51% 30.19 in 10.0 mi Variable 4.6 mph - N/A   Mostly Cloudy
3:53 PM 30.2 °F 24.3 °F 15.8 °F 55% 30.19 in 10.0 mi Variable 5.8 mph - N/A   Mostly Cloudy
4:14 PM 30.2 °F - 12.2 °F 47% 30.18 in 10.0 mi Calm Calm - N/A   Overcast
4:34 PM 32.0 °F 25.6 °F 15.8 °F 51% 30.17 in 10.0 mi Variable 6.9 mph - N/A   Overcast
4:53 PM 28.4 °F 22.2 °F 12.2 °F 51% 30.16 in 10.0 mi Variable 5.8 mph - N/A   Overcast
5:14 PM 30.2 °F 24.3 °F 14.0 °F 51% 30.15 in 10.0 mi Variable 5.8 mph - N/A   Mostly Cloudy
5:34 PM 30.2 °F 26.7 °F 15.8 °F 55% 30.15 in 10.0 mi Variable 3.5 mph - N/A   Mostly Cloudy
5:53 PM 33.8 °F 27.7 °F 15.8 °F 48% 30.14 in 10.0 mi NW 6.9 mph - N/A   Mostly Cloudy
6:14 PM 32.0 °F 23.6 °F 17.6 °F 55% 30.15 in 10.0 mi West 10.4 mph - N/A   Overcast
6:34 PM 32.0 °F 23.0 °F 17.6 °F 55% 30.14 in 10.0 mi West 11.5 mph - N/A   Overcast
6:53 PM 32.0 °F 22.5 °F 17.1 °F 54% 30.13 in 10.0 mi SW 12.7 mph - N/A   Overcast
7:14 PM 32.0 °F 24.8 °F 17.6 °F 55% 30.13 in 10.0 mi West 8.1 mph - N/A   Mostly Cloudy
7:34 PM 32.0 °F 23.0 °F 17.6 °F 55% 30.13 in 10.0 mi WSW 11.5 mph - N/A   Mostly Cloudy
7:53 PM 30.2 °F 21.3 °F 17.6 °F 60% 30.13 in 10.0 mi SW 10.4 mph - N/A   Partly Cloudy
8:14 PM 30.2 °F 21.9 °F 17.6 °F 60% 30.11 in 10.0 mi SW 9.2 mph - N/A   Mostly Cloudy
8:33 PM 30.2 °F 22.6 °F 17.6 °F 60% 30.11 in 10.0 mi SW 8.1 mph - N/A   Overcast
8:53 PM 30.0 °F 23.2 °F 19.0 °F 64% 30.12 in 10.0 mi SW 6.9 mph - N/A   Scattered Clouds
9:14 PM 28.4 °F 22.2 °F 17.6 °F 64% 30.12 in 10.0 mi SW 5.8 mph - N/A   Partly Cloudy
9:33 PM 28.4 °F 22.2 °F 19.4 °F 69% 30.11 in 10.0 mi WSW 5.8 mph - N/A   Partly Cloudy
9:53 PM 29.1 °F 23.0 °F 19.0 °F 66% 30.10 in 10.0 mi WSW 5.8 mph - N/A   Clear
10:14 PM 28.4 °F 20.4 °F 19.4 °F 69% 30.11 in 10.0 mi WSW 8.1 mph - N/A   Clear
10:33 PM 28.4 °F 19.1 °F 17.6 °F 64% 30.11 in 10.0 mi West 10.4 mph - N/A   Clear
10:54 PM 29.1 °F 21.3 °F 19.0 °F 66% 30.10 in 10.0 mi West 8.1 mph - N/A   Clear
11:14 PM 28.4 °F 20.4 °F 17.6 °F 64% 30.09 in 10.0 mi West 8.1 mph - N/A   Clear
11:33 PM 28.4 °F 21.2 °F 17.6 °F 64% 30.10 in 10.0 mi West 6.9 mph - N/A   Clear
11:54 PM 28.0 °F 20.0 °F 18.1 °F 66% 30.10 in 10.0 mi West 8.1 mph - N/A   Clear